Weather History for Colby, KS

Change the Weather History Date:

Wednesday, January 8, 2014

  Actual Average (KGLD) Record (KGLD)
Temperature  
Mean Temperature 25 °F 30 °F  
Max Temperature 33 °F 42 °F 74 °F (2002)
Min Temperature 17 °F 17 °F -14 °F (1937)
Degree Days  
Heating Degree Days 40 35  
Month to date heating degree days 282  
Since 1 July heating degree days 2689  
Cooling Degree Days 0 0  
Month to date cooling degree days 0  
Year to date cooling degree days 0  
Moisture  
Dew Point 22 °F    
Average Humidity 84    
Maximum Humidity 100    
Minimum Humidity 69    
Precipitation  
Precipitation 0.00 in 0.02 in 0.26 in (1962)
Month to date precipitation 0.10  
Year to date precipitation 0.10  
Snow  
Snow 0.00 in 0.20 in - ()
Month to date snowfall 1.5  
Since 1 July snowfall 14.2  
Snow Depth -    
Sea Level Pressure  
Sea Level Pressure 30.12 in    
Wind  
Wind Speed 11 mph (East)    
Max Wind Speed 20 mph    
Max Gust Speed 28 mph    
Visibility 10 miles    
Events      
T = Trace of Precipitation, MM = Missing Value Source: NWS Daily Summary

Daily Weather History Graph

Daily Weather History Graph

Search for Another Location

Airport:

Trip Planner

Search our weather history database for the weather conditions in past years. The results will help you decide how hot, cold, wet, or windy it might be!

Date:

Astronomy

Jan. 08, 2014 Rise Set
Actual Time 8:04 AM CST 5:37 PM CST
Civil Twilight 7:34 AM CST 6:07 PM CST
Nautical Twilight 7:01 AM CST 6:41 PM CST
Astronomical Twilight 6:28 AM CST 7:13 PM CST
Moon 12:30 PM CST (1/8) 1:12 AM CST (1/8)
Length of Visible Light 10h 33m
Length of Day
9h 33m
First Quarter, 56% of the Moon is Illuminated
Jan 8
First Quarter
Jan 15
Full
Jan 23
Last Quarter
Jan 30
New
Feb 6
First Quarter

Hourly Weather History & Observations

Time (CST) Temp. Windchill Dew Point Humidity Pressure Visibility Wind Dir Wind Speed Gust Speed Precip Events Conditions
12:15 AM 32.0 °F 24.2 °F 24.8 °F 75% 30.01 in 10.0 mi NNE 9.2 mph - N/A   Overcast
12:35 AM 32.0 °F 23.0 °F 24.8 °F 75% 29.99 in 10.0 mi NNE 11.5 mph - N/A   Mostly Cloudy
12:55 AM 32.0 °F 24.8 °F 23.0 °F 69% 30.01 in 10.0 mi NNE 8.1 mph - N/A   Overcast
1:15 AM 30.2 °F 21.3 °F 23.0 °F 75% 30.01 in 10.0 mi NE 10.4 mph - N/A   Overcast
1:35 AM 30.2 °F 20.8 °F 23.0 °F 75% 30.01 in 10.0 mi NNE 11.5 mph - N/A   Mostly Cloudy
1:55 AM 28.4 °F 18.0 °F 23.0 °F 80% 30.01 in 10.0 mi NE 12.7 mph - N/A   Scattered Clouds
2:15 AM 28.4 °F 18.0 °F 23.0 °F 80% 30.02 in 10.0 mi NNE 12.7 mph - N/A   Scattered Clouds
2:35 AM 28.4 °F 18.5 °F 23.0 °F 80% 30.02 in 10.0 mi NNE 11.5 mph - N/A   Mostly Cloudy
2:55 AM 28.4 °F 17.5 °F 23.0 °F 80% 30.03 in 10.0 mi NNE 13.8 mph - N/A   Scattered Clouds
3:15 AM 28.4 °F 16.2 °F 23.0 °F 80% 30.03 in 10.0 mi NE 17.3 mph - N/A   Mostly Cloudy
3:35 AM 28.4 °F 17.0 °F 23.0 °F 80% 30.04 in 10.0 mi NE 15.0 mph - N/A   Overcast
3:55 AM 28.4 °F 17.5 °F 23.0 °F 80% 30.04 in 10.0 mi NE 13.8 mph - N/A   Overcast
4:15 AM 26.6 °F 14.7 °F 23.0 °F 86% 30.04 in 10.0 mi NE 15.0 mph - N/A   Overcast
4:35 AM 26.6 °F 15.7 °F 21.2 °F 80% 30.04 in 10.0 mi NE 12.7 mph 18.4 mph N/A   Overcast
4:55 AM 26.6 °F 13.8 °F 21.2 °F 80% 30.04 in 10.0 mi NE 17.3 mph - N/A   Overcast
5:15 AM 26.6 °F 15.2 °F 21.2 °F 80% 30.05 in 10.0 mi ENE 13.8 mph - N/A   Overcast
5:35 AM 26.6 °F 14.7 °F 21.2 °F 80% 30.07 in 10.0 mi ENE 15.0 mph - N/A   Overcast
5:55 AM 24.8 °F 12.9 °F 21.2 °F 86% 30.07 in 10.0 mi ENE 13.8 mph - N/A   Overcast
6:15 AM 26.6 °F 13.8 °F 21.2 °F 80% 30.07 in 10.0 mi East 17.3 mph 21.9 mph N/A   Overcast
6:35 AM 26.6 °F 13.1 °F 21.2 °F 80% 30.06 in 10.0 mi East 19.6 mph 27.6 mph N/A   Overcast
6:55 AM 26.6 °F 14.3 °F 21.2 °F 80% 30.07 in 10.0 mi East 16.1 mph - N/A   Overcast
7:15 AM 26.6 °F 15.2 °F 21.2 °F 80% 30.09 in 10.0 mi East 13.8 mph - N/A   Overcast
7:35 AM 26.6 °F 16.2 °F 21.2 °F 80% 30.10 in 10.0 mi ENE 11.5 mph - N/A   Overcast
7:55 AM 26.6 °F 17.5 °F 21.2 °F 80% 30.13 in 10.0 mi NE 9.2 mph - N/A   Overcast
8:15 AM 24.8 °F 15.3 °F 21.2 °F 86% 30.14 in 10.0 mi NE 9.2 mph - N/A   Overcast
8:35 AM 26.6 °F 16.2 °F 21.2 °F 80% 30.15 in 10.0 mi NE 11.5 mph - N/A   Overcast
8:55 AM 26.6 °F 16.2 °F 21.2 °F 80% 30.16 in 10.0 mi ENE 11.5 mph - N/A   Overcast
9:15 AM 24.8 °F 16.1 °F 21.2 °F 86% 30.18 in 10.0 mi ENE 8.1 mph - N/A   Overcast
9:35 AM 26.6 °F 17.5 °F 21.2 °F 80% 30.19 in 10.0 mi NE 9.2 mph - N/A   Scattered Clouds
9:55 AM 26.6 °F 16.8 °F 21.2 °F 80% 30.19 in 10.0 mi ENE 10.4 mph - N/A   Scattered Clouds
10:15 AM 28.4 °F 19.1 °F 23.0 °F 80% 30.20 in 10.0 mi East 10.4 mph - N/A   Mostly Cloudy
10:35 AM 28.4 °F 18.5 °F 23.0 °F 80% 30.20 in 10.0 mi East 11.5 mph - N/A   Overcast
10:55 AM 28.4 °F 18.0 °F 23.0 °F 80% 30.20 in 10.0 mi East 12.7 mph - N/A   Overcast
11:15 AM 28.4 °F 20.4 °F 23.0 °F 80% 30.20 in 10.0 mi East 8.1 mph - N/A   Mostly Cloudy
11:35 AM 30.2 °F 19.8 °F 23.0 °F 75% 30.19 in 10.0 mi East 13.8 mph - N/A   Mostly Cloudy
11:55 AM 30.2 °F 19.8 °F 23.0 °F 75% 30.18 in 10.0 mi East 13.8 mph - N/A   Overcast
12:15 PM 30.2 °F 20.2 °F 23.0 °F 75% 30.16 in 10.0 mi East 12.7 mph 18.4 mph N/A   Overcast
12:35 PM 32.0 °F 24.2 °F 23.0 °F 69% 30.15 in 10.0 mi East 9.2 mph - N/A   Scattered Clouds
12:55 PM 32.0 °F 24.8 °F 23.0 °F 69% 30.15 in 10.0 mi East 8.1 mph - N/A   Scattered Clouds
1:15 PM 32.0 °F 24.2 °F 23.0 °F 69% 30.14 in 10.0 mi East 9.2 mph - N/A   Clear
1:35 PM 32.0 °F 25.6 °F 24.8 °F 75% 30.14 in 10.0 mi East 6.9 mph - N/A   Clear
1:55 PM 32.0 °F 24.2 °F 24.8 °F 75% 30.13 in 10.0 mi East 9.2 mph - N/A   Clear
2:15 PM 32.0 °F 26.4 °F 24.8 °F 75% 30.13 in 10.0 mi East 5.8 mph - N/A   Clear
2:35 PM 33.8 °F 25.8 °F 24.8 °F 70% 30.13 in 10.0 mi East 10.4 mph - N/A   Clear
2:55 PM 33.8 °F 26.4 °F 26.6 °F 75% 30.13 in 10.0 mi East 9.2 mph - N/A   Clear
3:15 PM 33.8 °F 27.0 °F 24.8 °F 70% 30.13 in 10.0 mi East 8.1 mph - N/A   Clear
3:35 PM 32.0 °F 23.6 °F 24.8 °F 75% 30.13 in 10.0 mi East 10.4 mph - N/A   Clear
3:55 PM 32.0 °F 23.0 °F 24.8 °F 75% 30.14 in 10.0 mi East 11.5 mph - N/A   Clear
4:15 PM 32.0 °F 23.6 °F 24.8 °F 75% 30.14 in 10.0 mi East 10.4 mph - N/A   Clear
4:35 PM 32.0 °F 23.0 °F 24.8 °F 75% 30.14 in 10.0 mi East 11.5 mph - N/A   Clear
4:55 PM 30.2 °F 21.3 °F 24.8 °F 80% 30.14 in 10.0 mi East 10.4 mph - N/A   Clear
5:15 PM 28.4 °F 19.7 °F 24.8 °F 86% 30.15 in 10.0 mi East 9.2 mph - N/A   Clear
5:35 PM 26.6 °F 18.2 °F 23.0 °F 86% 30.15 in 10.0 mi East 8.1 mph - N/A   Clear
5:55 PM 23.0 °F 14.7 °F 21.2 °F 93% 30.15 in 10.0 mi East 6.9 mph - N/A   Clear
6:15 PM 23.0 °F 13.9 °F 21.2 °F 93% 30.15 in 10.0 mi East 8.1 mph - N/A   Clear
6:35 PM 21.2 °F 11.7 °F 21.2 °F 100% 30.15 in 10.0 mi East 8.1 mph - N/A   Clear
6:55 PM 19.4 °F 11.5 °F 19.4 °F 100% 30.15 in 10.0 mi East 5.8 mph - N/A   Clear
7:15 PM 19.4 °F 11.5 °F 19.4 °F 100% 30.15 in 10.0 mi ESE 5.8 mph - N/A   Clear
7:35 PM 19.4 °F 11.5 °F 19.4 °F 100% 30.16 in 10.0 mi ESE 5.8 mph - N/A   Clear
7:55 PM 19.4 °F 10.4 °F 19.4 °F 100% 30.17 in 10.0 mi ESE 6.9 mph - N/A   Clear
8:15 PM 19.4 °F 10.4 °F 19.4 °F 100% 30.18 in 10.0 mi SE 6.9 mph - N/A   Clear
8:35 PM 17.6 °F 9.3 °F 17.6 °F 100% 30.18 in 10.0 mi SE 5.8 mph - N/A   Clear
8:55 PM 19.4 °F 8.6 °F 19.4 °F 100% 30.18 in 10.0 mi SE 9.2 mph - N/A   Clear
9:15 PM 19.4 °F 11.5 °F 19.4 °F 100% 30.18 in 10.0 mi SE 5.8 mph - N/A   Clear
9:35 PM 19.4 °F 9.5 °F 19.4 °F 100% 30.18 in 10.0 mi SE 8.1 mph - N/A   Clear
9:55 PM 19.4 °F 7.9 °F 19.4 °F 100% 30.17 in 10.0 mi SE 10.4 mph - N/A   Clear
10:15 PM 19.4 °F 8.6 °F 19.4 °F 100% 30.17 in 10.0 mi SE 9.2 mph - N/A   Clear
10:35 PM 19.4 °F 8.6 °F 19.4 °F 100% 30.17 in 10.0 mi SE 9.2 mph - N/A   Clear
10:55 PM 19.4 °F 8.6 °F 19.4 °F 100% 30.17 in 10.0 mi SSE 9.2 mph - N/A   Clear
11:15 PM 19.4 °F 7.9 °F 19.4 °F 100% 30.17 in 10.0 mi SSE 10.4 mph - N/A   Clear
11:35 PM 17.6 °F 7.3 °F 17.6 °F 100% 30.16 in 10.0 mi SSE 8.1 mph - N/A   Clear
11:55 PM 19.4 °F 7.9 °F 19.4 °F 100% 30.15 in 10.0 mi South 10.4 mph - N/A   Clear